Find Starlink 32749

NORAD ID: 62508 Int'l Des: 2025-003 Owner: SPXS Country: US Constellation: starlink operational
LEOCIRCULAR

現在のビュー

3D地球を読み込み中...

About Starlink 32749

Starlink 32749 (NORAD 62508) is a starlink constellation satellite (v2 mini) launched Jan 6, 2025 by SPXS of US. It operates in LEO, CIRCULAR orbit with a mass of 730.00 kg.

Starlink 32749について

説明を読み込み中...

次回通過

Passes for default location (London). Set your location on the main map for personalized predictions.

高度履歴

Loading altitude history...

軌道要素

1 62508U 25003X 26194.75528525 .00008880 00000-0 33169-3 0 9991
2 62508 43.0032 296.8487 0002505 280.8539 79.2030 15.27595440 85833
Epoch: Jul 13, 2026 • Age: 15 hours

現在のステータス

高度 493.6 km
遠地点 / 近地点 N/A
速度 7.62 km/s
衛星直下点 -40.63°S, 152.18°E
打ち上げ日 Jan 6, 2025
運用期間 1.5 years
タイプ internet

技術仕様

分類 Payload
質量 730.00 kg
乾燥質量 700.00 kg
総質量 730.00 kg
長さ 0.30 m
直径 4.10 m
スパン 29.00 m
形状 Box + pan
製造者 SPXS
バスタイプ Starlink V2M
フェーズステータス In Orbit
所有者/国 SPXS/US

Most Searched